Regional Weather Roundup
Issued by NWS

Home | Current Version | Previous Version | Text Only | Print | Product List | Glossary Off
Versions: 1 2 3 4 5 6 7 8 9 10 11 12 13 14 15 16 17 18 19 20 21 22 23 24 25 26 27 28 29 30 31 32 33 34 35 36 37 38 39 40 41 42 43 44 45 46 47 48 49 50

729
ASUS45 KBOU 251507
RWRCO

WEATHER ROUNDUP FOR COLORADO
NATIONAL WEATHER SERVICE DENVER/BOULDER CO
900 AM MDT SUN JUN 25 2017

NOTE: "FAIR" INDICATES FEW OR NO CLOUDS BELOW 12000 FEET WITH NO
SIGNIFICANT WEATHER AND/OR OBSTRUCTIONS TO VISIBILITY.

COZ001>005-013-030-031-251600-
...NORTHWEST COLORADO...

CITY           SKY/WX    TMP DP  RH WIND       PRES   REMARKS
CRAIG          FAIR      60  35  39 VRB3      30.37F
HAYDEN         FAIR      61  34  36 E6        30.38S
MEEKER         FAIR      61  35  37 VRB3      30.37S
RABBIT EARS PA FAIR      54  30  40 CALM      30.60S
STEAMBOAT SPGS FAIR      56  37  47 CALM      30.39F
WALDEN         FAIR      54  36  50 CALM      30.48S
$$

COZ006>008-011-251600-
...WEST CENTRAL VALLEYS...

CITY           SKY/WX    TMP DP  RH WIND       PRES   REMARKS
GRAND JUNCTION FAIR      74  29  19 SE15      30.24R
MONTROSE       FAIR      71  35  26 E7        30.31R
EAGLE          SUNNY     57  30  35 CALM      30.43F
RIFLE          FAIR      67  34  29 NE5       30.31F
DELTA          FAIR      69  32  25 E3        30.28S
NUCLA          FAIR      72  27  18 CALM      30.32S
$$

COZ017>023-064>068-251600-
...SOUTHWEST COLORADO...

CITY           SKY/WX    TMP DP  RH WIND       PRES   REMARKS
DURANGO        FAIR      68  37  32 E6        30.37S
CORTEZ         FAIR      70  37  29 CALM      30.29S
PAGOSA SPRINGS FAIR      66  32  28 CALM      30.45S
TELLURIDE      FAIR      62  26  25 CALM      30.52S
WOLF CREEK PAS FAIR      46  36  66 S12G17    30.74S
$$

COZ009-010-012-014-032>034-037-058>063-251600-
...CENTRAL COLORADO...

CITY           SKY/WX    TMP DP  RH WIND       PRES   REMARKS
ASPEN          FAIR      60  32  34 VRB5      30.43S
BUENA VISTA    FAIR      60  43  52 N3        30.47F
COPPER MTN     FAIR      54  28  37 NW5       30.69F
BERTHOUD PASS  FAIR      43  30  61 NW9       30.72S
COTTONWOOD PAS FAIR      57  43  58 E3        30.58S
GUNNISON       FAIR      56  37  49 CALM      30.46F
KREMMLING      NOT AVBL
LEADVILLE      FAIR      52  38  58 W5        30.56F
MONARCH PASS   FAIR      50  39  66 S6        30.80S
SALIDA         FAIR      63  47  55 CALM      30.53F
SUNLIGHT       FAIR      54  27  35 CALM      30.65R
WILKERSON PASS FAIR      46  36  66 CALM      30.68S
$$

COZ069>075-251600-
...SAN LUIS VALLEY/SANGRE DE CRISTO MOUNTAINS...

CITY           SKY/WX    TMP DP  RH WIND       PRES   REMARKS
ALAMOSA        FAIR      60  48  64 S5        30.44S
DEL NORTE      FAIR      62  43  49 CALM      30.47S
LA VETA PASS   FAIR      54  46  76 MISG      30.70S
SAGUACHE       FAIR      63  41  45 S3        30.47S
$$

COZ035-036-038>040-251600-
...NORTHERN COLORADO FRONT RANGE...

CITY           SKY/WX    TMP DP  RH WIND       PRES   REMARKS
DENVER INTL AP FAIR      59  49  69 N8        30.38R
DMNS CITY PARK   N/A     59  50  71 N12G21    30.38S
AURORA         MOSUNNY   60  49  68 NW12      30.39S
FRONT RANGE AP MOSUNNY   63  50  63 NW10      30.39S
ERIE MUNI ARPT CLOUDY    59  51  74 N8        30.38S
BOULDER MUN AP CLOUDY    59  52  77 NE5       30.38S
CENTENNIAL     FAIR      60  50  69 N9        30.39S
BROOMFIELD     CLOUDY    59  52  77 N6        30.40S
FORT COLLINS   CLOUDY    61  48  62 NE12      30.38S
LONGMONT       CLOUDY    63  52  65 NE7       30.39S
$$

COZ041-046-047-076>085-087-088-251600-
...PIKES PEAK/PALMER DIVIDE AND SOUTHERN FOOTHILLS...

CITY           SKY/WX    TMP DP  RH WIND       PRES   REMARKS
COLO. SPRINGS  FAIR      64  53  67 VRB6      30.39S
A. F. ACADEMY  FAIR      63  51  64 CALM      30.40S
SCHRIEVER AFB  FAIR      64  52  65 SE10      30.39S
CHEYENNE MTN   FAIR      60  50  69 E5        30.37S
ELLICOTT       FAIR     N/A N/A N/A S9        30.37S
FALCON           N/A     63  50  61 S3        30.44R
FORT CARSON    FAIR      64  53  68 S3        30.37S
LIMON          CLOUDY    61  52  72 VRB6      30.37S
MONUMENT HILL  FAIR      61  48  63 NW9       30.45R
CANON CITY     SUNNY     68  54  60 NE5       30.34F
WALSENBURG     FAIR      68  52  56 CALM      30.37F
TRINIDAD       PTSUNNY   70  54  56 W17       30.35F
$$

COZ042>045-048>051-090-091-251600-
...NORTHEAST COLORADO...

CITY           SKY/WX    TMP DP  RH WIND       PRES   REMARKS
GREELEY ARPT   NOT AVBL
AKRON          CLOUDY    54  51  90 E12       30.37  FOG
BURLINGTON     CLOUDY    56  53  90 NE16      30.38R
WRAY           CLOUDY    54  54 100 E12G24    30.38R
YUMA           CLOUDY    52  50  93 E13       30.37F
STERLING       CLOUDY    59  45  58 E10G18    30.35S
HOLYOKE        NOT AVBL
FORT MORGAN    CLOUDY    58  51  76 E14       30.37R
$$

COZ086-089-092>099-251600-
...SOUTHEAST COLORADO...

CITY           SKY/WX    TMP DP  RH WIND       PRES   REMARKS
PUEBLO         FAIR      67  55  65 VRB3      30.31F
LA JUNTA       FAIR      69  57  65 E3        30.29S
LAMAR          FAIR      72  58  61 S12       30.26F
SPRINGFIELD      N/A     68  59  73 S12       30.31F
$$




USA.gov is the U.S. government's official web portal to all federal, state and local government web resources and services.